Location: Emblem
(62.4273°N, 6.4710°E)
Time: 11:32:03
(UTC+01:00)

Transit 2A Rocket - Visible Passes

Search period start: 28 January 2023 00:00
Search period end: 07 February 2023 00:00
Orbit: 585 x 914 km, 66.7° (Epoch: 27 January)

Date Brightness Start Highest point End Pass type
(mag) Time Alt. Az. Time Alt. Az. Time Alt. Az.
28 Jan 7.7 02:32:02 15° ENE 02:32:02 15° ENE 02:33:06 10° ENE visible
28 Jan 6.0 04:11:53 46° NE 04:11:53 46° NE 04:15:59 10° ENE visible
28 Jan 5.5 05:51:45 43° NW 05:53:15 57° N 05:59:07 10° ENE visible
28 Jan 5.4 07:31:37 14° WNW 07:36:30 69° NNE 07:42:32 10° ESE visible
29 Jan 6.8 03:29:54 31° ENE 03:29:54 31° ENE 03:32:50 10° ENE visible
29 Jan 5.3 05:09:46 59° NNW 05:10:00 60° N 05:15:52 10° ENE visible
29 Jan 5.5 06:49:37 22° WNW 06:53:16 62° NNE 06:59:16 10° E visible
30 Jan 7.4 02:47:55 20° ENE 02:47:55 20° ENE 02:49:43 10° ENE visible
30 Jan 5.7 04:27:46 55° NNE 04:27:46 55° NNE 04:32:38 10° ENE visible
30 Jan 5.5 06:07:37 33° WNW 06:10:02 58° N 06:15:58 10° E visible
30 Jan 5.4 07:47:29 11° WNW 07:53:08 87° NE 07:59:14 10° ESE visible
31 Jan 7.8 02:05:55 13° ENE 02:05:55 13° ENE 02:06:34 10° ENE visible
31 Jan 6.4 03:45:46 39° NE 03:45:46 39° NE 03:49:27 10° ENE visible
31 Jan 5.5 05:25:38 48° NW 05:26:45 57° N 05:32:39 10° E visible
31 Jan 5.4 07:05:29 17° WNW 07:09:58 75° NNE 07:16:03 10° ESE visible
01 Feb 7.1 03:03:46 26° ENE 03:03:46 26° ENE 03:06:18 10° ENE visible
01 Feb 5.5 04:43:37 58° N 04:43:37 58° N 04:49:23 10° ENE visible
01 Feb 5.5 06:23:29 26° WNW 06:26:45 66° NNE 06:32:49 10° E visible
01 Feb 5.5 08:03:48 10° WNW 08:09:36 69° SW 08:15:40 10° SE visible
02 Feb 7.6 02:21:45 18° ENE 02:21:45 18° ENE 02:23:09 10° ENE visible
02 Feb 6.0 04:01:37 48° NE 04:01:37 48° NE 04:06:08 10° ENE visible
02 Feb 5.6 05:41:28 38° NW 05:43:32 60° NNE 05:49:30 10° E visible
02 Feb 5.3 07:21:20 13° WNW 07:26:32 85° SW 07:32:39 10° SE visible
03 Feb 7.9 01:39:45 11° ENE 01:39:45 11° ENE 01:40:01 10° ENE visible
03 Feb 6.7 03:19:36 34° NE 03:19:36 34° NE 03:22:55 10° ENE visible
03 Feb 5.5 04:59:28 53° NNW 05:00:15 57° N 05:06:12 10° E visible
03 Feb 5.3 06:39:19 21° WNW 06:43:24 81° NNE 06:49:32 10° ESE visible
04 Feb 7.3 02:37:36 23° ENE 02:37:36 23° ENE 02:39:44 10° ENE visible
04 Feb 5.7 04:17:27 55° NNE 04:17:27 55° NNE 04:22:54 10° ENE visible
04 Feb 5.4 05:57:19 31° NW 06:00:13 71° NNE 06:06:19 10° ESE visible
04 Feb 5.5 07:37:10 10° WNW 07:42:56 60° SW 07:48:57 10° SSE visible
05 Feb 7.7 01:55:36 15° ENE 01:55:36 15° ENE 01:56:35 10° ENE visible
05 Feb 6.3 03:35:27 42° NE 03:35:27 42° NE 03:39:37 10° ENE visible
05 Feb 5.5 05:15:18 45° NW 05:17:00 63° NNE 05:23:02 10° E visible
05 Feb 5.3 06:55:10 16° WNW 06:59:54 76° SW 07:06:01 10° SE visible
06 Feb 6.9 02:53:28 29° ENE 02:53:28 29° ENE 02:56:23 10° ENE visible
06 Feb 5.5 04:33:19 57° N 04:33:44 59° N 04:39:43 10° E visible
06 Feb 5.3 06:13:10 25° WNW 06:16:49 89° NNE 06:22:57 10° ESE visible
06 Feb 6.0 07:53:41 10° WNW 07:59:09 40° SW 08:04:47 10° SSE visible
